DIRECTV 7S

导读

DIRECTV 7S是美国直播电视卫星公司运营的广播卫星,属于“直播电视”系列,于2004年5月4日发射升空。它由劳拉空间系统公司研制,采用成熟平台设计,发射质量约5535千克,设计寿命15年,配置54路Ku频段转发器,是一颗高功率点波束直播卫星,运行于地球静止轨道,主要为美国本土提供高清卫星电视直播服务,强化了北美区域的电视信号覆盖能力。

基本信息
目录编号:
28238
目录名称:
DIRECTV 7S
国际标识:
2004-016A
轨道中心:
EARTH
卫星名称:
DIRECTV 7S
卫星全名:
--
卫星状态:
在轨 (已飞行8079 天)
发射日期:
2004-05-04 UTC
国别 :
美国 (US)
星等 :
--
轨道信息
数据来源 国际轨道数据 AOE轨道数据
星历时间 2026-06-17T02:33:39+0800
16小时前
查看轨道信息
2026-06-17T03:00:00+0800
16小时前
查看轨道信息
半长轴 42549.659km 42549.401km
偏心率 0.0004613 0.0004431
轨道倾角 5.131° 5.132°
近地点辐角 81.068° 78.693°
升交点赤经 74.952° 74.956°
平近点角 114.395° 123.284°
近地点 36151.893km 36152.41km
远地点 36191.151km 36190.118km
周期 1455.807分钟 1455.794分钟
每日圈数 0.989142 0.989151
详细信息
使用方式:
暂无
2D轨道图
3D轨道图
轨道高度分析图
轨道倾角分析图
轨道综合分析图
查看轨道综合分析图